User: anonymous   Login
Location: Caltech
(34.1382°N, 118.1253°W)
Time: 23:21:35
(UTC-07:00)
Language:

Cosmos 2237 Rocket - Orbit

View from above orbital plane
View from above orbital plane
View from above satellite
View from above satellite

Ground track
Ground track

The orbit data is extracted from the following two-line orbital elements,

1 22566U 93016B   16182.14320997 -.00000009  00000-0  20077-4 0  9993
2 22566  71.0079  85.8775 0012009 302.5507  57.4455 14.14925065201472
Epoch (UTC): 30 June 2016 03:26:13
Eccentricity: 0.0012009
inclination: 71.0079°
perigee height: 834 km
apogee height: 851 km
right ascension of ascending node: 85.8775°
argument of perigee: 302.5507°
revolutions per day: 14.14925065
mean anomaly at epoch: 57.4455°
orbit number at epoch: 20147

The dashed part of the orbit path shows where the satellite is in the earth's shadow,  

DLR